Regional Weather Roundup
Issued by NWS Wilmington, NC

Home | Current Version | Previous Version | Text Only | Print | Product List | Glossary On
Versions: 1 2 3 4 5 6 7 8 9 10 11 12 13 14 15 16 17 18 19 20 21 22 23 24 25 26 27
000
ASUS42 KILM 101113
RWRILM
RWRILM
REGIONAL HOURLY WEATHER ROUNDUP
NATIONAL WEATHER SERVICE WILMINGTON NC
600 AM EST SAT DEC 10 2016

NOTE: "FAIR" INDICATES FEW OR NO CLOUDS BELOW 12,000 FEET WITH NO
SIGNIFICANT WEATHER AND/OR OBSTRUCTIONS TO VISIBILITY.

...............WFO WILMINGTON COUNTY WARNING AREA...............

......COASTAL NC AND SC COUNTIES......

CITY           SKY/WX    TMP DP  RH WIND       PRES   REMARKS
WILMINGTON     CLEAR     26  19  74 N6        30.52R WCI  19
N MYRTLE BEACH CLEAR     28  20  71 N7        30.52R WCI  21
MYRTLE BEACH   CLEAR     30  19  64 N10       30.54S WCI  21

......INLAND NC AND SC COUNTIES.......

CITY           SKY/WX    TMP DP  RH WIND       PRES   REMARKS
LUMBERTON      CLEAR     26  18  71 N6        30.53R WCI  19
ELIZABETHTOWN  PTCLDY    26  19  75 CALM      30.52S
WHITEVILLE     CLEAR     29  17  61 N3        30.52S
FLORENCE       CLEAR     28  18  66 NE8       30.54R WCI  20
DARLINGTON     CLEAR     22  18  85 NE3       30.54R
KINGSTREE      FAIR      28  19  69 N3        30.53R
HARTSVILLE     FAIR      28  14  54 NE9       30.52R WCI  20
BENNETTSVILLE  FAIR      28  25  86 CALM      30.54R
CONWAY         FAIR      28  21  74 CALM      30.53R
GEORGETOWN     FAIR      30  21  69 N3        30.52R
MARION         FAIR      27  19  74 N6        30.53S WCI  20

....................REST OF NORTH CAROLINA......................

.........EASTERN NC.........

CITY           SKY/WX    TMP DP  RH WIND       PRES   REMARKS
CAPE HATTERAS  CLEAR     37  21  52 VRB5      30.48R WCI  33
JACKSONVILLE   CLEAR     21  17  84 CALM      30.52R
MOREHEAD CITY  CLEAR     31  23  72 N8        30.51R WCI  23
KENANSVILLE    CLEAR     23  18  80 NW3       30.52S
NEW BERN       CLEAR     27  18  69 N7        30.53R WCI  19
ELIZABETH CITY CLEAR     24  18  77 W6        30.51R WCI  17

.........CENTRAL NC.........

CITY           SKY/WX    TMP DP  RH WIND       PRES   REMARKS
RALEIGH DURHAM CLEAR     20  15  81 CALM      30.52R
ROCKY MOUNT    CLEAR     21  18  88 CALM      30.52R
ROANOKE RAPIDS NOT AVBL
FAYETTEVILLE   CLEAR     25  16  68 N7        30.53R WCI  17
HOFFMAN        CLEAR     19  16  88 CALM      30.53R

.........WESTERN NC.........

CITY           SKY/WX    TMP DP  RH WIND       PRES   REMARKS
CHARLOTTE      CLEAR     25  13  60 CALM      30.51R
GREENSBORO     CLEAR     21  13  71 CALM      30.48S
HICKORY        NOT AVBL
BOONE          NOT AVBL
ASHEVILLE      NOT AVBL

.....................REST OF SOUTH CAROLINA.....................

.........EASTERN SC.........

CITY           SKY/WX    TMP DP  RH WIND       PRES   REMARKS
CHARLESTON     CLEAR     31  22  69 NE6       30.51R WCI  25
BEAUFORT MCAS  CLEAR     33  26  75 NE7       30.51R WCI  27
HILTON HEAD    NOT AVBL

.........CENTRAL SC.........

CITY           SKY/WX    TMP DP  RH WIND       PRES   REMARKS
COLUMBIA       CLEAR     25  21  85 CALM      30.51S
ORANGEBURG     CLEAR     29  20  69 NE6       30.51R WCI  23
SUMTER SHAW    CLEAR     25  17  72 NE7       30.50R WCI  17

.........WESTERN SC.........

CITY           SKY/WX    TMP DP  RH WIND       PRES   REMARKS
GREENVILLE     NOT AVBL
ROCK HILL      CLEAR     21  17  84 CALM      30.51S
ANDERSON       CLEAR     27  15  61 NE3       30.50R
CLEMSON        NOT AVBL
GREENWOOD      CLEAR     22  17  81 N3        30.51R


...................COASTAL AND OFFSHORE REPORTS..................

................LOCAL PIERS AND NC RESERVE................


STATION/POSITION TIME  SKY/WX   TEMP    WIND        PRES    VSBY
                                AIR SEA DIR/SP/G
                 (UTC)          (F)     (DEG/KT/KT) (MB)    (MI)
JOHNY MRCER PIER 1036            31 60  350/ 10/ 14 1031.9R
NC RESRV MASNBRO 0945            30      10/  2     1032.0
OCEAN CREST PIER NOT AVBL
SPRINGMAID  PIER NOT AVBL


................COASTAL AND OFFSHORE BUOYS................


STATION/POSITION TIME  SKY/WX   TEMP    WIND        PRES    VSBY
                                AIR SEA DIR/SP/G
                 (UTC)          (F)     (DEG/KT/KT) (MB)    (MI)
DIMNDSHOAL 41025 1050            42 78  350/ 14/ 19 1031.7R
WVE H/P(F/S)=  5/ 9 SWL H/P/D(F/S/D)=  3/ 70/ 9

CAPE LOOKOUT     1000            34     350/ 13/ 15 1032.0R
ONSLOW BAY 41036 NOT AVBL
ONSLOW BAY 41064 1008            42 69  360/ 14/ 17 1032.0R
ONSLOW BAY 41159 1043               69                N/A
WVE H/P(F/S)=  3/ 4

5SE WRITBC 41038 1008            35 60   10/ 17/ 31 1032.2R
MASNBO INL 41110 1059               60                N/A
WVE H/P(F/S)=  3/ 4

WILM HARBR 41108 1056               60                N/A
WVE H/P(F/S)=  3/ 3

27SE WRITB 41037 1008            42 69   10/ 14/ 25 1031.5R
FRYING PAN 41013 1050            45 72  360/ 16/ 21 1032.3R
WVE H/P(F/S)=  3/ 5 SWL H/P/D(F/S/D)=  2/100/ 8

SUNST NRSH 41024 1008            34 58   20/ 17/ 21 1032.4R
CAPRS NRSH 41029 1008            44 60   40/ 16/ 19 1031.7F
EDISTO     41004 1050            49 73   30/ 16/ 19 1031.0R
WVE H/P(F/S)=  4/ 6 SWL H/P/D(F/S/D)=  2/ 70/ 8



..........OFFSHORE BUOYS BEYOND 100 NM OFFSHORE...........
.....IN A TRIANGLE---HAT TO BERMUDA TO BAHAMAS TO HAT.....


STATION/POSITION TIME  SKY/WX   TEMP    WIND        PRES    VSBY
                                AIR SEA DIR/SP/G
                 (UTC)          (F)     (DEG/KT/KT) (MB)    (MI)
150E HAT   41001 NOT AVBL
W BERMUDA  41048 1050            62 72  320/ 16/ 19 1024.8R
WVE H/P(F/S)=  9/ 9 SWL H/P/D(F/S/D)=  7/350/ 9

ATLANTIC S 41049 1050            73 76  360/  8/  8 1021.8R
WVE H/P(F/S)=  4/ 7 SWL H/P/D(F/S/D)=  3/300/ 7

E BAHAMAS  41046 1100            76 79   80/  6/  8 1020.6
NE BAHAMAS 41047 1100            71 78   50/ 19/ 23 1023.0
120E CANVRL41010 NOT AVBL

END




USA.gov is the U.S. government's official web portal to all federal, state and local government web resources and services.